Satellite-Ground Cal/Val Site Overpasses Predictions

Prediction of Satellite NPP Overpassing Cal/Val Site: Antarctic Dome C

Ground Cal/Val Site Location: Latitude: -75.10, Longitude: 123.35; Satellite-Ground Site NADIR distance within 100 km.

Table of predicted overpasses for the next 14.0 days since TLE Epoch: 12/1/2017
Interval Starting Time Ending Time Minimum Distance Time Minimum Distance (km)
1 12/02/2017 07:19:25 12/02/2017 07:19:46 12/02/2017 07:19:35 70.86
2 12/04/2017 15:01:40 12/04/2017 15:02:03 12/04/2017 15:01:51 59.38
3 12/05/2017 14:42:48 12/05/2017 14:43:14 12/05/2017 14:43:01 49.94
4 12/06/2017 07:44:30 12/06/2017 07:44:50 12/06/2017 07:44:40 74.27
5 12/07/2017 07:25:37 12/07/2017 07:26:05 12/07/2017 07:25:51 33.54
6 12/09/2017 15:08:03 12/09/2017 15:08:09 12/09/2017 15:08:06 97.08
7 12/10/2017 14:49:01 12/10/2017 14:49:30 12/10/2017 14:49:16 14.26
8 12/12/2017 07:31:50 12/12/2017 07:32:19 12/12/2017 07:32:05 3.60


NCC Satellite Cal/Val Overpasses Prediction Service
